Volver al catálogo

KUIPER-00029

ActivoComunicacionesLEO
NORAD 63742·PAYLOAD·🇺🇸 United States

Lanzado Apr 28, 2025 desde Cape Canaveral Space Force Station

Loading…

Próximos Pases (próximas 24 horas)

TLE

ActualizadoSource: CelesTrak SupGP

Época: Sep 14, 2026, 22:38 UTC

1 63742C 25088U   26257.94311343  .00001627  00000+0  21297-3 0  2571
2 63742  51.9021 334.8653 0000064  41.8729 233.5107 14.79927214    13

Sigue KUIPER-00029 en tiempo real con AllMySat

Download on the App Store